GFSNGP_850_temp_231.txt.gz
Temp
3 3 3 4 4 8 12 13 12 15 16 16 18 17 15 14 13 13 11 11 13 12 11 11 11 12 12 13 13 12 12 11 11 11 11 11 10 9 9 8 8 7 7 7
3 4 5 3 6 4 5 9 12 14 15 18 17 16 17 13 13 11 12 13 11 10 10 10 10 11 12 12 12 12 11 11 11 11 10 10 9 8 7 7 7 7 6 6
3 6 4 3 6 7 6 6 11 11 14 16 16 15 17 17 14 13 14 14 12 13 12 12 12 12 12 12 12 11 11 10 10 10 9 9 8 7 7 7 6 6 6 5
3 3 2 6 9 7 5 6 5 6 14 16 16 16 16 16 16 15 17 15 12 12 10 10 10 11 11 11 11 10 10 10 10 9 9 8 7 7 7 7 6 5 5 5
2 3 5 6 7 8 8 7 7 5 8 12 13 14 15 16 16 16 16 18 18 16 14 11 10 11 11 11 11 10 10 10 9 9 8 8 7 7 7 5 5 5 4 3
2 2 3 7 9 8 8 6 10 10 9 11 12 10 14 15 16 15 15 16 17 17 13 10 9 10 11 10 10 9 10 9 9 9 8 8 8 7 5 5 5 4 2 2
1 2 4 7 8 9 6 7 11 10 11 9 9 10 12 15 16 16 16 15 15 14 13 11 10 10 10 10 10 10 10 9 7 8 8 8 7 6 6 5 4 2 1 -0
2 2 2 7 7 6 8 9 9 10 11 9 9 8 9 9 14 14 15 14 13 13 10 10 10 9 10 10 10 10 9 8 7 7 7 7 6 6 5 4 2 1 -0 -0
3 4 6 7 8 8 8 9 8 8 8 8 8 9 9 10 10 13 14 15 14 12 9 8 9 9 9 8 10 9 9 7 7 7 6 6 6 5 3 2 1 0 0 0
5 6 6 7 7 7 8 7 7 8 8 8 8 8 9 9 10 11 12 14 13 9 8 7 7 7 8 9 10 9 8 6 7 6 5 5 5 4 3 2 1 1 1 0
5 6 7 7 7 7 6 7 7 8 7 8 8 8 9 8 9 10 12 11 12 9 8 8 7 6 6 9 9 8 6 5 6 6 5 5 4 4 3 3 3 3 2 1
4 6 6 7 7 6 6 6 7 7 7 7 7 7 8 8 10 10 11 10 10 9 8 6 6 5 7 10 9 7 4 5 6 5 5 4 4 3 3 2 2 1 0 -0
5 6 6 6 5 6 6 6 6 6 6 7 7 6 8 6 11 10 11 10 9 8 7 6 5 5 6 8 7 6 4 5 5 5 4 4 3 3 3 2 1 1 1 1
4 4 4 4 5 5 5 5 6 5 6 6 6 6 7 7 10 9 9 8 8 7 5 5 5 4 6 7 7 5 4 5 5 4 4 4 4 3 3 3 2 2 1 1
4 4 4 4 4 4 4 5 5 5 5 5 4 6 6 7 8 8 8 7 6 6 5 4 4 3 5 5 6 5 6 6 5 4 4 4 4 3 3 2 2 1 1 -0
3 3 3 3 3 3 3 4 4 4 4 2 4 5 6 6 7 6 6 6 5 4 4 4 3 4 4 5 5 5 6 5 4 4 4 4 4 3 2 2 2 1 0 -1
1 2 2 2 3 3 3 3 4 3 0 1 2 3 4 3 3 3 3 3 3 3 3 3 3 4 5 4 3 4 4 4 4 4 5 4 4 3 2 2 1 0 -0 -1
-1 0 1 2 3 3 2 3 3 1 -1 -0 0 1 0 -0 1 1 0 1 2 2 3 3 3 4 3 4 4 4 4 4 4 5 4 3 3 3 2 1 0 -1 -3 -4
-1 -1 0 2 3 2 2 1 1 0 0 0 -0 -1 -1 -1 -1 -1 -1 -1 0 1 -0 2 3 3 4 4 2 3 4 4 4 3 3 3 2 1 1 0 -1 -3 -3 -4
0 0 1 2 1 2 1 -0 -1 -2 -3 -2 -1 -2 -3 -3 -2 -2 -2 -2 -1 1 1 4 4 2 1 2 2 3 4 4 3 2 2 1 1 -0 -1 -2 -3 -3 -5 -4
0 2 2 1 1 1 1 -1 -2 -2 -3 -3 -3 -3 -3 -2 -2 -1 1 -0 -1 0 1 1 1 1 1 2 2 3 2 2 1 1 0 -0 -2 -3 -4 -4 -4 -4 -4 -4
-3 -2 -2 -2 -2 -2 -2 -2 -2 -2 -2 -2 -1 -1 -0 -0 -0 -0 0 1 -1 -0 -1 -0 0 1 1 1 1 1 1 0 -0 -1 -2 -3 -4 -5 -5 -5 -4 -4 -4 -4
-4 -4 -4 -4 -4 -4 -4 -2 -1 -1 -1 -1 -1 -1 -1 -1 -1 -0 -2 -2 -1 -1 -0 -0 -0 -0 -0 -0 0 -0 -1 -2 -4 -4 -4 -5 -5 -5 -5 -4 -4 -4 -4 -4
-5 -5 -4 -3 -2 -1 -2 -2 -1 -1 -1 -1 -2 -2 -2 -2 -3 -2 -2 -3 -3 -2 -3 -3 -3 -2 -2 -3 -3 -4 -5 -5 -5 -4 -5 -4 -4 -4 -5 -4 -4 -4 -4 -4
-3 -3 -3 -2 -3 -4 -3 -4 -3 -3 -3 -3 -3 -3 -2 -2 -2 -4 -4 -4 -4 -4 -4 -5 -6 -6 -5 -5 -5 -5 -5 -5 -5 -5 -5 -4 -4 -5 -5 -5 -5 -5 -5 -6
-4 -4 -4 -3 -4 -4 -3 -3 -4 -4 -4 -4 -5 -4 -4 -4 -4 -5 -5 -5 -5 -5 -6 -6 -6 -6 -6 -6 -6 -6 -6 -6 -5 -5 -5 -5 -5 -5 -5 -6 -6 -6 -6 -6
-4 -3 -3 -4 -4 -3 -4 -4 -4 -5 -5 -5 -5 -6 -5 -6 -6 -6 -6 -6 -7 -7 -7 -7 -7 -7 -7 -7 -6 -6 -6 -6 -6 -5 -6 -6 -6 -6 -6 -6 -6 -6 -6 -5

GFSNGP_850_temp_234.txt.gz
Temp
3 4 4 4 4 5 4 4 11 16 18 20 21 21 20 19 17 15 14 13 15 15 13 12 11 11 10 10 12 13 13 13 13 12 11 11 11 11 11 10 10 9 10 9
4 5 6 6 8 7 5 5 6 10 12 16 21 21 22 21 20 19 16 14 14 14 13 12 11 11 9 11 12 13 13 13 12 11 11 10 11 11 10 9 9 9 9 8
5 6 6 5 6 8 8 9 9 10 13 12 14 17 19 19 18 18 18 14 14 16 15 13 12 11 10 10 12 13 12 11 11 11 10 11 10 10 9 9 9 9 8 8
4 5 3 8 11 11 9 10 10 11 12 13 11 12 12 13 17 18 18 18 14 13 14 13 11 10 10 9 11 10 9 8 10 10 10 9 9 9 9 9 9 8 7 7
4 6 7 8 10 10 10 10 12 12 13 13 12 11 13 14 15 16 17 17 17 16 14 12 11 10 9 8 8 8 8 9 10 10 10 10 9 10 10 9 8 7 6 6
4 4 5 10 12 12 11 9 12 13 13 13 13 12 15 14 15 16 16 16 17 16 14 12 11 10 9 8 8 8 9 11 10 10 11 10 10 9 9 8 7 5 5 4
4 4 6 9 11 11 7 9 12 13 13 14 13 14 14 13 12 13 14 16 16 16 15 12 11 10 9 9 8 9 9 10 10 10 10 10 9 9 8 7 5 5 4 3
4 3 4 10 10 9 10 11 11 11 12 12 12 12 12 12 12 13 13 15 16 15 15 13 11 9 10 9 8 7 9 10 10 10 9 9 9 8 7 5 5 4 2 2
6 6 8 9 10 10 9 10 10 11 10 10 10 11 11 11 11 12 13 13 15 15 14 13 11 9 9 9 8 6 8 9 9 8 8 8 7 7 5 5 3 3 3 3
7 8 9 9 9 9 9 10 10 10 9 9 9 9 9 9 10 11 12 13 13 14 13 12 10 9 10 9 8 5 7 9 9 8 7 6 7 5 5 4 4 4 4 3
7 8 9 9 9 9 9 9 9 9 9 9 8 8 9 10 10 11 11 12 13 14 12 12 9 9 9 9 7 4 6 9 7 7 7 7 5 5 5 5 6 5 4 3
6 9 9 9 9 9 8 8 8 8 8 8 8 8 8 9 9 10 10 11 12 13 12 11 9 8 9 7 6 4 6 8 7 6 5 4 4 4 3 4 4 3 2 2
8 8 8 8 8 8 8 8 7 7 7 8 8 7 7 8 9 9 9 9 11 12 12 11 8 8 8 6 5 4 7 7 6 5 5 3 3 3 4 3 2 1 -0 1
6 6 6 6 7 6 7 7 7 6 6 7 7 7 7 7 8 8 7 7 8 11 11 9 7 8 6 5 4 4 5 6 6 4 3 2 3 3 3 3 2 0 0 1
5 5 5 5 5 5 6 6 6 6 6 7 7 7 7 6 6 6 6 6 7 9 10 8 7 7 4 4 3 3 4 5 4 3 1 3 4 4 3 3 2 2 1 0
4 4 4 4 5 5 5 5 6 6 6 6 6 6 5 4 4 5 5 6 7 8 9 7 6 5 3 3 3 3 4 5 3 1 1 1 2 2 2 2 2 2 1 1
2 2 2 3 3 4 4 5 5 5 5 5 5 4 3 1 3 3 4 5 6 8 8 6 6 3 2 2 3 3 4 2 2 -1 0 2 1 1 2 2 2 1 1 0
-1 -1 -1 -0 1 3 4 4 5 5 4 4 3 3 1 2 0 2 3 3 4 5 5 4 4 2 1 1 1 3 3 0 0 0 1 2 1 2 2 2 1 1 0 -0
-1 -2 -3 -2 -1 1 3 4 4 3 2 2 2 1 1 -1 -1 -0 1 2 2 2 0 1 1 1 0 1 3 3 0 0 -0 0 1 1 2 2 2 1 1 0 -1 -2
-3 -3 -2 1 1 1 2 3 3 1 1 0 -1 -1 -2 -2 -1 -1 -1 -1 -1 -0 -0 0 0 1 1 2 2 0 -0 0 1 1 2 2 2 2 1 1 0 -1 -2 -2
-4 -4 -2 1 2 2 1 1 0 -1 -2 -2 -3 -3 -3 -3 -3 -2 -2 -2 -2 -1 -1 -1 -1 -1 0 0 0 0 0 1 2 2 2 2 1 1 1 -0 -1 -2 -2 -3
-5 -5 -4 -2 -2 -2 -2 -2 -2 -3 -3 -3 -3 -3 -3 -3 -3 -3 -3 -3 -3 -2 -2 -1 -0 -0 -0 -0 0 1 1 2 2 2 1 1 1 1 -0 -1 -2 -2 -2 -3
-5 -5 -5 -5 -4 -4 -4 -3 -4 -4 -4 -4 -4 -3 -3 -4 -4 -4 -4 -3 -2 -1 -0 -1 -1 -0 0 0 0 0 1 1 1 1 1 1 0 -1 -2 -3 -3 -4 -4 -3
-5 -5 -5 -5 -4 -4 -4 -4 -4 -3 -3 -4 -3 -3 -2 -3 -3 -2 -2 -1 -0 -0 -0 -0 -1 -1 -1 -0 0 1 0 0 1 0 -0 -1 -2 -3 -4 -4 -4 -4 -4 -4
-4 -5 -5 -5 -4 -5 -4 -3 -3 -3 -2 -3 -3 -2 -2 -1 -1 -2 -1 -2 -2 -2 -2 -2 -2 -2 -2 -2 -1 -1 -1 -1 -2 -2 -3 -3 -4 -4 -4 -4 -4 -4 -5 -5
-4 -4 -4 -4 -4 -4 -4 -2 -3 -3 -3 -3 -4 -3 -2 -2 -2 -2 -3 -3 -3 -4 -4 -5 -4 -4 -3 -3 -3 -3 -3 -3 -4 -4 -4 -4 -4 -4 -4 -4 -4 -5 -5 -5
-5 -4 -4 -4 -4 -4 -4 -4 -3 -4 -4 -3 -4 -5 -4 -4 -4 -4 -5 -5 -5 -5 -5 -5 -5 -5 -4 -4 -4 -5 -5 -5 -5 -5 -5 -5 -5 -5 -4 -5 -5 -5 -5 -6

GFSNGP_850_temp_237.txt.gz
Temp
3 4 6 6 6 5 4 5 6 16 18 21 21 21 23 21 20 19 17 18 19 18 16 16 15 15 12 11 12 12 12 13 13 13 13 12 12 11 11 11 12 11 11 11
5 7 7 7 9 9 9 7 6 9 12 16 17 19 21 22 21 21 22 18 16 18 17 16 15 14 13 11 11 12 12 13 13 12 11 12 11 10 10 10 10 10 10 10
5 7 7 6 8 9 10 10 10 11 14 16 17 16 17 17 16 17 19 20 17 15 16 16 15 14 13 11 10 11 12 12 12 11 11 11 11 10 9 9 9 9 10 10
5 6 4 9 12 12 12 11 12 13 14 15 15 15 15 14 15 16 17 18 19 17 15 15 15 15 14 11 9 10 10 10 10 9 10 9 9 8 9 9 9 9 9 10
4 6 8 10 11 12 12 12 13 12 13 15 14 15 15 15 16 16 16 17 18 18 17 15 14 14 14 11 8 8 9 9 8 9 9 8 8 7 7 8 8 9 9 9
5 5 6 11 14 14 13 11 14 14 14 14 15 14 16 16 16 16 17 17 18 18 17 18 14 13 13 11 9 8 8 9 9 8 9 8 8 7 8 9 10 8 9 9
5 5 8 11 13 13 9 10 13 13 13 13 13 15 15 15 15 16 15 16 17 17 17 17 15 13 12 11 9 10 8 8 8 7 7 7 8 8 9 9 8 7 9 8
5 5 5 11 12 10 12 12 12 12 12 12 11 12 13 13 14 14 15 15 15 16 16 18 16 13 12 12 10 8 7 8 7 6 6 6 9 8 9 8 7 8 7 6
7 7 10 11 12 11 12 12 12 12 12 11 11 12 12 12 12 13 14 15 15 15 16 17 17 14 12 12 11 8 7 7 6 5 5 8 9 8 8 7 8 7 5 4
7 9 11 11 11 11 11 11 11 11 11 11 11 11 11 11 11 11 12 13 13 15 15 16 17 16 13 12 11 9 7 6 5 5 7 7 8 8 8 7 8 6 4 3
8 9 10 10 10 10 10 10 10 11 11 11 11 10 11 11 10 11 11 12 12 13 14 14 15 15 14 12 11 9 6 5 4 5 7 7 7 8 8 7 8 7 6 6
7 9 9 10 10 10 10 10 10 10 10 10 10 10 10 10 10 10 10 11 12 12 13 13 14 15 13 11 11 9 6 4 3 5 5 5 6 5 6 7 6 6 6 6
10 9 9 9 8 9 9 9 9 9 10 9 9 9 10 10 10 9 9 10 11 11 12 12 13 14 12 11 11 8 5 4 3 4 4 4 6 7 5 4 4 4 4 3
8 8 8 8 8 8 8 8 8 8 8 8 9 9 9 9 9 9 9 9 9 10 10 11 11 11 11 11 10 8 5 3 3 3 4 6 7 5 6 5 2 1 1 1
7 7 7 7 7 7 7 7 7 7 8 8 8 8 8 8 8 9 9 8 8 8 8 8 9 10 10 11 9 6 4 3 2 2 2 5 5 4 4 3 2 3 -0 -0
5 5 5 5 5 6 6 6 7 7 7 7 7 8 8 8 8 8 8 8 7 7 6 6 8 9 9 9 8 6 4 2 2 1 2 4 5 4 3 1 1 0 0 1
4 3 2 2 2 2 3 4 6 6 6 7 7 7 7 7 7 7 7 6 5 5 5 6 7 7 9 8 7 5 2 1 1 0 2 4 3 2 1 1 -1 -1 0 2
2 1 1 0 0 -0 0 1 2 3 5 6 6 6 6 6 6 5 4 4 4 3 4 5 5 6 7 7 5 3 1 0 -0 1 2 2 1 0 0 0 -1 -1 1 2
-0 -0 -1 -1 -1 -2 -2 -2 -0 2 3 4 5 5 5 4 4 3 3 2 1 1 2 3 5 4 6 5 3 1 -0 -0 -1 -1 1 1 0 0 -0 -1 -1 -0 2 2
-2 -3 -3 -2 -3 -3 -1 0 0 1 2 3 3 3 2 1 1 1 0 -1 -0 0 1 2 3 3 3 2 2 0 -0 -1 -1 -0 0 -0 -0 -1 -0 -1 -1 1 2 1
-3 -4 -4 -4 -4 -3 -0 1 1 1 2 1 1 -1 -1 -1 -2 -2 -2 -2 -1 -0 0 1 1 0 1 1 -0 -1 -1 -1 -1 0 -0 -0 -0 -0 -1 -1 -1 -0 1 1
-4 -4 -4 -5 -4 -3 -3 -2 -2 -2 -2 -2 -2 -2 -3 -3 -3 -3 -3 -2 -2 -2 -1 -1 -1 -0 -1 -1 -1 -1 -1 -0 -0 -0 -0 0 -0 -0 -0 -0 -0 0 0 1
-4 -4 -5 -5 -4 -5 -4 -4 -4 -4 -4 -3 -4 -4 -4 -4 -4 -4 -4 -4 -3 -2 -2 -2 -1 -1 -1 -1 -1 -1 -0 -1 -0 -0 -0 0 0 0 -0 0 0 1 -0 -1
-4 -4 -5 -5 -5 -5 -5 -5 -5 -5 -4 -4 -5 -5 -5 -5 -5 -4 -4 -4 -3 -2 -2 -2 -2 -1 -0 -1 -0 -0 -0 -0 -0 -0 0 1 0 0 -0 -0 -0 -2 -2 -3
-4 -4 -4 -4 -4 -4 -4 -4 -4 -4 -4 -5 -4 -4 -4 -4 -4 -5 -4 -4 -3 -3 -3 -2 -1 -1 -1 -1 -0 -0 -0 0 0 -0 -0 -0 -0 -0 -1 -2 -3 -3 -3 -3
-4 -4 -4 -4 -5 -4 -4 -4 -5 -5 -5 -5 -5 -4 -4 -4 -3 -3 -3 -3 -3 -3 -2 -2 -1 -1 -0 -0 -0 -0 -0 -1 -1 -1 -0 -1 -2 -3 -3 -4 -4 -4 -4 -4
-4 -4 -4 -5 -5 -5 -4 -4 -3 -4 -4 -4 -5 -4 -4 -3 -3 -3 -2 -2 -2 -2 -2 -2 -2 -2 -2 -2 -2 -2 -2 -3 -3 -3 -3 -3 -4 -4 -4 -4 -4 -4 -5 -5

GFSNGP_850_temp_240.txt.gz
Temp
5 5 5 5 4 5 5 5 7 14 17 20 12 12 17 20 19 19 19 20 20 20 18 18 17 17 18 17 17 17 17 17 16 16 16 15 14 14 13 13 12 12 11 10
5 6 7 6 6 7 7 7 7 9 10 13 15 13 14 17 17 17 18 19 19 19 18 17 16 16 16 16 15 13 14 14 15 15 14 14 14 13 12 12 11 11 10 10
5 6 5 4 6 8 9 10 10 10 13 14 15 12 12 14 15 16 16 17 18 19 18 17 16 15 15 13 11 12 12 13 13 13 13 13 13 12 11 11 10 9 9 10
4 5 4 8 12 12 10 11 12 13 13 14 14 15 15 15 16 15 16 17 18 18 18 17 16 15 15 14 11 10 11 11 12 12 12 12 12 11 10 9 8 8 9 9
4 5 7 9 10 11 11 10 13 13 13 14 14 14 15 15 15 14 15 17 17 18 17 17 16 16 15 13 11 10 10 11 11 11 11 10 10 9 9 7 7 7 9 10
5 5 5 10 13 13 13 9 13 14 13 13 13 11 14 15 15 16 16 14 17 17 18 17 16 15 15 13 11 11 9 10 10 10 10 10 9 9 8 7 7 7 9 10
5 5 7 11 12 13 9 10 13 13 13 12 12 12 12 12 13 14 15 16 16 16 17 18 17 16 15 14 14 14 10 9 9 9 9 9 9 8 7 7 7 8 9 8
6 5 5 12 12 10 11 12 13 13 12 12 12 12 12 11 12 13 14 15 16 16 16 16 17 16 14 13 15 13 11 8 9 9 8 7 7 6 6 6 7 8 8 8
7 8 10 11 11 11 11 11 11 11 11 12 12 12 12 12 12 12 13 13 14 15 15 16 16 16 15 14 13 12 10 8 8 8 7 7 6 6 5 6 7 7 8 7
6 9 10 11 11 11 10 10 11 11 11 11 11 11 11 12 11 12 12 12 12 14 14 14 15 16 15 14 13 12 10 8 7 7 6 6 6 6 6 6 6 8 7 7
7 8 9 10 10 10 10 10 10 11 11 11 11 11 11 11 11 11 11 12 12 12 12 13 13 14 15 14 12 12 10 8 6 6 6 6 6 6 7 7 9 10 9 9
6 9 9 9 7 9 10 10 9 9 10 11 11 11 11 11 11 11 11 11 11 11 11 12 12 13 13 14 12 10 9 7 6 6 5 5 5 4 4 6 7 8 9 10
9 9 9 9 9 9 9 9 9 9 9 9 9 9 10 10 11 10 10 10 11 11 11 11 12 12 12 13 13 11 8 8 6 5 5 4 4 4 4 4 6 7 7 8
9 9 9 8 8 8 8 8 8 8 8 9 9 9 9 9 9 10 9 9 9 10 10 9 9 10 11 11 12 12 9 9 9 6 5 4 4 4 4 5 3 3 5 5
7 7 6 6 6 6 7 7 7 7 8 8 8 8 8 9 9 9 9 9 9 9 9 9 9 9 9 10 10 9 9 6 6 5 4 3 3 3 3 3 4 3 2 2
5 5 5 5 4 4 4 4 4 5 5 6 7 7 8 8 8 8 8 8 8 8 9 9 8 8 9 9 8 9 7 6 7 4 3 2 2 1 1 2 3 2 2 1
4 3 3 2 2 2 2 2 2 2 2 3 3 3 6 7 7 8 8 8 8 8 8 8 8 8 7 7 7 7 7 5 6 4 3 2 2 1 1 2 3 2 2 2
1 1 1 0 -0 -1 -1 -0 -0 0 1 1 1 2 3 4 6 7 7 7 7 7 7 7 7 6 6 6 6 6 6 5 4 3 2 2 1 -1 1 2 3 2 2 1
-1 -1 -2 -2 -2 -3 -3 -3 -2 -2 -2 -2 -1 -1 0 2 3 4 5 6 5 5 5 6 6 6 5 5 6 5 5 4 3 2 2 1 -0 -1 -1 1 2 2 1 -0
-3 -3 -3 -3 -3 -4 -4 -4 -3 -3 -1 0 -0 -0 0 2 3 3 3 3 3 4 4 4 4 4 4 5 5 4 4 3 2 1 0 -0 -1 -1 -2 1 1 1 -1 -0
-4 -4 -4 -4 -4 -4 -4 -4 -3 -3 -1 -0 -0 -0 0 1 2 1 1 0 2 2 2 2 2 2 3 2 3 3 3 2 1 -0 -1 -1 -1 -2 -1 1 1 -0 1 -1
-4 -4 -4 -4 -4 -4 -5 -4 -4 -4 -3 -3 -2 -2 -2 -1 -2 -2 -1 -1 -1 -1 -0 -0 0 0 1 2 2 1 0 0 -1 -1 -1 -2 -2 -1 -0 0 -1 0 -1 -1
-4 -4 -4 -4 -4 -4 -4 -5 -5 -4 -4 -4 -4 -4 -4 -4 -4 -4 -4 -3 -2 -2 -2 -1 -1 0 1 0 -0 -1 -1 -1 -1 -1 -1 -2 -2 -0 -0 -1 -1 -1 -1 -1
-4 -4 -4 -4 -4 -4 -4 -4 -5 -5 -5 -5 -5 -5 -5 -5 -4 -4 -4 -4 -4 -3 -2 -2 -1 -1 -1 -1 -1 -1 -1 -1 -1 -2 -2 -1 -1 -1 -1 -1 -1 -1 -0 -1
-4 -4 -4 -4 -4 -4 -4 -4 -4 -5 -5 -5 -5 -5 -5 -5 -5 -5 -5 -4 -4 -3 -3 -2 -2 -2 -2 -2 -2 -2 -2 -2 -2 -1 -1 -0 -1 -1 -1 -1 -1 -1 -1 -1
-4 -4 -4 -4 -5 -5 -5 -5 -5 -5 -5 -5 -5 -5 -5 -5 -5 -5 -4 -4 -4 -4 -4 -4 -3 -3 -3 -2 -2 -2 -2 -1 -1 -0 -0 -0 -0 -0 -0 -1 -1 -1 -1 -2
-4 -4 -4 -5 -5 -6 -5 -5 -5 -5 -5 -5 -5 -5 -5 -5 -4 -4 -4 -4 -3 -3 -3 -2 -2 -2 -1 -1 -1 -1 -1 -0 -0 -0 -0 -0 -1 -1 -1 -1 -2 -2 -3 -3

GFSNGP_850_temp_243.txt.gz
Temp
3 4 3 4 4 5 4 5 5 9 11 14 12 10 12 12 12 15 16 18 19 19 20 20 19 19 20 21 21 20 20 20 20 20 19 18 17 17 17 17 14 14 14 14
3 6 5 4 5 5 6 6 5 6 7 12 12 10 10 11 11 13 15 17 18 18 18 18 17 17 17 18 18 18 18 19 19 19 18 17 17 16 16 15 14 14 13 13
3 5 4 2 4 6 7 8 8 8 9 11 10 11 9 9 10 11 15 16 16 18 18 18 17 17 16 16 16 16 15 15 16 16 17 17 17 16 15 14 14 14 12 12
1 4 1 6 10 9 8 8 9 9 10 11 9 10 11 9 8 8 10 11 14 15 17 17 17 17 16 16 16 15 15 13 14 14 15 16 15 15 14 14 14 13 12 11
0 3 5 7 9 9 9 8 10 10 11 12 12 11 12 10 7 8 9 11 13 14 15 17 16 16 16 15 15 14 13 12 12 13 13 14 14 14 14 13 12 12 11 11
0 1 2 7 10 11 10 6 11 11 11 11 12 8 10 11 10 10 11 11 12 14 15 16 16 16 16 16 16 16 15 13 11 12 12 12 12 12 12 12 11 11 9 8
2 2 4 8 10 10 7 6 10 12 11 11 9 9 11 11 11 12 11 12 13 13 14 15 16 15 16 16 16 16 15 14 12 11 11 11 11 11 11 9 10 10 8 7
2 3 2 9 9 8 8 10 10 11 11 11 11 11 12 11 11 11 12 12 12 13 14 15 15 16 15 15 16 15 15 14 13 11 10 10 10 10 9 9 9 9 7 7
4 3 6 8 9 10 11 10 10 10 10 11 11 11 11 11 11 11 11 12 12 12 13 14 14 13 14 15 15 15 14 13 11 10 9 9 9 9 8 8 8 8 7 6
3 4 6 6 8 9 9 10 10 10 10 10 10 11 11 11 11 11 11 11 11 12 12 12 12 12 13 13 14 14 14 12 11 9 9 8 8 8 7 7 7 7 6 6
4 5 6 8 8 9 9 9 9 9 9 9 9 9 10 11 11 11 11 11 11 11 11 11 11 11 11 12 12 13 13 11 10 8 8 8 7 7 7 8 8 8 7 6
3 5 6 7 8 8 8 8 9 9 9 9 9 9 9 9 9 10 11 11 11 11 11 11 11 11 11 11 12 11 12 11 10 9 7 7 7 6 6 6 6 6 6 5
5 6 6 7 8 7 6 7 7 7 7 8 8 8 8 9 9 9 9 9 11 11 10 11 11 11 11 11 10 9 10 11 10 9 8 7 6 6 6 5 4 5 5 5
6 7 6 6 5 5 6 5 6 6 6 6 6 6 7 8 8 8 8 9 9 9 10 10 10 10 10 10 10 9 8 9 11 10 9 7 6 6 6 6 4 3 3 4
5 5 4 4 4 4 4 4 4 3 3 4 4 4 4 5 6 7 8 8 8 9 9 9 9 9 9 9 9 9 9 7 7 9 8 7 5 5 5 5 4 3 2 2
4 3 3 2 2 2 1 1 1 1 1 1 2 2 2 3 3 5 6 7 8 8 8 8 9 9 9 9 9 9 8 8 5 5 6 5 4 4 4 4 3 3 3 3
1 0 0 -0 -1 -1 -1 -1 -1 -1 -1 -1 -1 -0 1 1 1 2 3 4 5 7 8 8 8 8 8 8 8 8 7 7 7 4 4 4 4 4 4 4 3 2 2 2
-1 -2 -2 -2 -2 -2 -2 -3 -3 -3 -3 -3 -3 -2 -1 -1 -1 -0 0 1 3 4 6 7 8 8 7 7 7 7 7 7 6 6 5 4 3 4 3 3 2 1 0 1
-3 -3 -3 -3 -3 -3 -4 -4 -4 -4 -4 -4 -4 -4 -3 -2 -2 -1 -2 -1 1 3 5 6 6 6 7 7 6 6 6 6 6 4 4 4 3 3 2 2 1 0 0 -0
-3 -4 -4 -4 -4 -4 -5 -5 -5 -5 -5 -4 -4 -4 -2 -1 -1 -0 0 -0 0 2 3 4 5 5 6 5 5 5 5 6 5 3 3 3 3 2 1 1 1 -0 -0 -1
-4 -4 -4 -4 -4 -4 -4 -4 -5 -5 -5 -4 -4 -4 -3 -3 -2 -2 -2 -1 0 2 2 3 3 3 4 4 4 4 5 5 4 2 2 2 3 1 -0 -0 -1 -1 -1 -2
-4 -4 -4 -5 -4 -4 -4 -4 -5 -5 -5 -5 -5 -4 -4 -4 -4 -4 -3 -3 -1 -0 -0 1 2 3 3 3 3 3 3 4 3 2 2 2 2 0 -1 -1 -1 -2 -2 -2
-4 -4 -4 -5 -4 -4 -4 -5 -5 -5 -5 -5 -5 -5 -5 -5 -5 -5 -4 -3 -3 -2 -2 -2 -1 -1 -0 -0 0 -0 1 2 2 2 1 1 0 -1 -1 -1 -2 -3 -2 -1
-4 -4 -4 -4 -4 -4 -4 -4 -5 -5 -5 -5 -5 -6 -6 -5 -5 -5 -5 -4 -4 -3 -2 -2 -1 -1 -1 -1 -1 -0 1 1 1 1 0 -1 -2 -2 -2 -2 -3 -2 -0 -0
-4 -4 -5 -5 -5 -5 -4 -4 -4 -5 -5 -5 -5 -5 -5 -5 -6 -5 -5 -5 -5 -4 -4 -3 -2 -2 -2 -1 -0 0 0 -0 -0 -1 -2 -2 -3 -2 -2 -2 -1 -0 -1 -2
-4 -4 -4 -5 -5 -5 -6 -5 -5 -5 -5 -5 -5 -5 -5 -5 -5 -5 -5 -5 -5 -5 -4 -4 -3 -2 -2 -2 -2 -2 -2 -2 -3 -2 -2 -2 -2 -2 -2 -1 -1 -1 -2 -1
-4 -4 -5 -5 -6 -6 -6 -6 -5 -5 -5 -5 -5 -5 -5 -5 -5 -5 -5 -5 -5 -5 -4 -4 -4 -4 -4 -3 -3 -3 -3 -3 -3 -2 -2 -2 -2 -2 -1 -1 -1 -1 -1 -1

GFSNGP_850_temp_249.txt.gz
Temp
1 3 4 3 3 3 3 3 4 6 5 7 8 9 9 8 8 8 8 8 10 10 12 13 16 19 21 22 22 24 22 20 20 20 20 18 18 18 19 19 19 18 18 17
2 4 4 4 5 5 5 4 4 5 6 6 8 9 9 8 8 8 7 7 9 9 11 11 12 13 17 19 19 21 20 19 20 19 17 17 17 17 17 18 17 17 17 16
-0 2 2 2 5 6 5 5 4 4 6 7 7 7 8 8 8 7 6 6 8 8 9 10 11 12 14 16 17 16 17 17 17 16 17 17 16 16 16 17 17 17 17 18
-1 0 -3 4 6 7 6 7 6 7 6 7 6 6 8 8 8 7 6 6 8 7 8 10 10 11 13 14 15 16 16 16 16 16 16 15 16 16 16 17 17 16 16 17
-4 -2 3 4 8 6 6 7 8 7 7 7 7 8 8 9 8 8 8 8 8 7 8 9 10 10 11 13 14 15 15 15 15 16 16 15 15 16 15 14 14 14 14 14
-4 -2 -2 4 7 7 6 5 8 8 8 7 8 6 7 8 8 8 8 9 8 7 6 8 9 10 11 11 13 15 14 14 13 14 14 15 15 15 14 14 14 14 14 13
1 -1 2 5 4 6 5 4 5 7 8 8 7 8 9 9 8 9 8 8 8 8 6 6 8 9 10 11 11 11 12 14 14 13 12 13 13 13 13 13 13 13 13 12
-1 -2 -1 3 4 4 3 4 4 6 8 8 9 9 9 10 9 9 9 7 7 7 6 5 7 8 8 9 10 12 12 12 13 14 12 11 11 12 12 12 12 12 12 12
1 0 3 3 5 4 4 4 4 5 7 8 9 8 9 9 9 9 9 9 9 8 6 6 5 5 6 8 9 10 11 10 11 11 12 10 10 10 10 11 11 11 11 11
2 3 3 4 5 5 4 4 5 6 7 7 7 7 8 8 8 9 9 9 9 8 8 7 6 6 7 6 7 9 9 10 9 10 10 10 9 9 10 10 10 10 10 10
2 3 3 4 5 5 5 5 5 6 6 5 6 6 6 6 7 7 8 8 8 8 8 9 9 9 8 8 7 7 9 9 10 9 9 9 8 9 8 9 10 10 10 10
1 3 3 3 4 4 4 4 4 4 4 5 4 4 5 6 6 6 6 7 7 7 7 8 8 9 10 10 10 9 9 10 9 10 9 8 9 8 8 7 8 8 9 9
2 3 3 3 4 3 3 3 3 3 3 3 3 3 3 3 5 5 6 6 6 6 6 7 7 8 8 9 10 9 10 10 10 11 11 9 8 8 7 7 7 7 8 8
2 2 2 3 2 1 1 1 1 2 1 2 2 2 1 1 2 3 3 4 4 5 6 6 6 6 7 7 8 9 9 9 9 10 10 10 9 8 7 7 6 6 7 7
1 1 1 1 1 1 0 0 1 0 1 1 1 -1 -1 -1 -1 -1 -1 0 1 3 5 5 6 7 6 7 7 7 8 9 9 9 9 9 9 8 6 6 6 6 6 6
-1 -0 -0 -1 -2 -2 -2 -3 -3 -2 -2 -2 -2 -1 -3 -3 -3 -2 -2 -3 -3 -1 -0 1 4 6 5 5 5 6 6 7 8 8 9 9 9 8 7 6 6 6 5 6
-2 -2 -3 -3 -3 -3 -3 -3 -4 -4 -3 -4 -5 -5 -5 -5 -5 -5 -5 -4 -4 -3 -3 -2 -1 -0 3 3 4 4 5 6 6 7 8 8 8 8 8 7 6 5 5 6
-3 -3 -4 -4 -4 -4 -4 -4 -4 -4 -5 -5 -4 -5 -5 -5 -5 -5 -5 -5 -5 -4 -4 -3 -2 -2 -0 3 3 3 4 5 6 6 7 8 7 7 7 7 6 5 5 5
-4 -4 -4 -4 -4 -4 -4 -4 -4 -4 -5 -5 -5 -5 -5 -5 -6 -6 -6 -6 -6 -5 -4 -4 -2 -1 -1 0 2 3 3 4 5 6 6 7 7 7 7 6 6 5 4 4
-4 -4 -5 -5 -5 -5 -5 -5 -5 -5 -5 -5 -5 -5 -5 -5 -6 -6 -6 -6 -6 -6 -5 -4 -3 -2 -1 0 0 1 2 3 4 5 5 6 6 6 7 6 6 5 4 3
-4 -4 -5 -5 -5 -5 -4 -5 -6 -5 -5 -5 -5 -6 -6 -5 -6 -6 -6 -6 -5 -5 -6 -6 -5 -4 -3 -1 -1 0 0 2 3 5 6 6 6 6 6 6 6 5 4 3
-5 -5 -5 -5 -5 -5 -5 -5 -5 -5 -5 -5 -5 -5 -5 -5 -5 -5 -4 -5 -5 -5 -5 -6 -6 -5 -4 -3 -2 -1 -1 0 2 3 4 5 6 6 6 5 5 5 4 4
-5 -5 -5 -5 -5 -6 -6 -6 -6 -5 -5 -5 -5 -5 -5 -5 -5 -5 -5 -4 -5 -5 -5 -5 -5 -5 -5 -5 -3 -2 -1 -1 -0 1 1 3 4 4 4 4 4 4 4 4
-5 -5 -5 -5 -5 -6 -6 -6 -6 -5 -5 -4 -4 -5 -5 -5 -5 -5 -5 -6 -5 -5 -5 -5 -5 -5 -5 -5 -4 -3 -2 -1 0 1 1 2 2 3 3 3 4 4 4 2
-4 -5 -5 -4 -5 -5 -6 -6 -7 -7 -6 -5 -4 -4 -5 -5 -5 -5 -5 -5 -5 -5 -5 -5 -5 -5 -5 -5 -5 -4 -3 -2 -1 -1 -0 -1 -0 1 1 1 2 1 -0 -0
-5 -5 -5 -5 -6 -6 -6 -6 -7 -7 -7 -6 -5 -5 -5 -5 -5 -5 -5 -5 -5 -6 -5 -5 -5 -5 -4 -4 -4 -4 -4 -4 -4 -4 -3 -3 -2 -2 -1 -1 -1 -1 -1 -1
-6 -6 -5 -5 -5 -6 -6 -6 -6 -6 -7 -7 -7 -6 -5 -5 -5 -5 -5 -5 -5 -6 -6 -5 -5 -5 -5 -4 -4 -3 -3 -3 -3 -3 -3 -3 -3 -2 -2 -1 -0 -0 -0 -1

GFSNGP_850_temp_252.txt.gz
Temp
-0 1 2 2 2 3 2 3 3 5 4 4 5 6 7 7 7 7 7 8 9 10 9 10 11 12 14 16 19 19 21 21 22 22 21 20 19 18 18 18 18 19 18 18
-1 2 2 2 3 4 4 5 4 4 4 5 6 7 7 6 7 6 6 7 7 8 10 10 10 10 11 13 16 18 19 20 22 22 21 19 18 17 17 17 16 17 17 17
-2 1 1 -1 4 4 5 5 4 4 6 7 7 7 7 7 7 6 6 6 6 6 8 9 10 9 11 12 13 16 18 17 17 19 19 18 16 15 15 15 15 16 16 16
-3 -0 -5 3 5 5 5 5 4 5 5 7 7 7 7 7 7 7 6 6 6 6 7 8 9 8 10 11 13 14 15 15 15 16 16 17 14 14 14 14 15 15 15 15
-4 -2 2 3 6 4 4 4 4 4 5 7 7 7 8 9 9 7 7 6 6 6 6 8 8 8 9 9 11 11 11 12 13 14 14 14 14 14 15 14 14 14 14 15
-4 -0 -2 3 4 5 5 4 4 3 4 6 7 5 6 8 9 7 8 7 7 6 6 7 6 7 8 9 9 11 11 11 12 13 13 13 13 14 14 14 14 15 14 14
-2 -1 0 3 4 5 4 3 1 2 4 5 6 6 8 8 9 9 8 8 7 7 6 4 5 6 7 8 8 9 9 10 12 12 13 13 13 13 13 13 13 13 13 14
-0 -2 -2 3 4 3 2 2 2 2 4 4 6 7 8 8 8 8 8 8 7 7 7 6 4 6 6 7 7 8 9 9 10 11 11 12 12 13 13 13 13 13 12 12
-0 0 2 4 3 4 3 3 2 2 4 5 6 6 6 6 7 7 7 7 7 7 6 7 6 4 5 5 6 7 8 8 9 9 10 10 10 11 11 12 12 12 12 12
1 2 2 3 3 4 3 4 4 4 4 4 4 4 5 6 6 6 6 6 6 7 6 6 6 5 6 5 5 5 6 7 7 8 8 9 9 9 10 11 11 11 11 11
1 2 2 3 3 3 4 3 4 3 3 3 3 4 3 4 5 5 5 6 5 6 6 6 6 6 5 6 5 6 6 6 7 7 8 8 8 8 8 9 9 10 9 10
1 2 1 2 3 2 3 2 2 2 2 3 3 2 2 2 2 2 3 4 5 5 5 6 6 6 6 6 6 6 7 8 6 7 6 8 8 8 8 8 8 8 8 8
1 2 2 2 2 2 2 1 1 1 1 0 1 1 1 1 1 1 2 2 3 3 4 4 5 6 6 6 6 7 7 8 8 7 7 6 7 8 7 7 8 8 8 8
1 1 0 0 -1 -1 0 0 0 0 -1 -1 -1 -0 -0 -0 0 0 0 -0 0 0 1 2 3 4 5 6 5 6 7 8 8 9 9 8 8 8 8 8 7 7 7 7
1 -0 -1 -1 -1 -0 0 0 -0 -1 -2 -2 -2 -2 -2 -2 -1 -1 0 0 -1 -2 -1 -1 -0 1 2 4 4 5 5 7 7 8 8 8 9 9 8 7 7 6 6 6
-1 -2 -1 -2 -2 -2 -3 -3 -3 -3 -3 -2 -3 -4 -4 -5 -5 -3 -2 -2 -3 -2 -3 -4 -4 -2 -0 0 2 4 4 5 6 6 7 7 8 8 9 9 9 7 5 6
-3 -2 -3 -3 -4 -4 -4 -4 -4 -4 -4 -5 -5 -5 -5 -5 -5 -5 -3 -4 -4 -3 -2 -3 -3 -4 -3 -3 -2 1 3 4 4 5 5 6 6 7 8 8 9 9 8 6
-4 -4 -4 -4 -4 -4 -4 -5 -5 -5 -5 -5 -5 -5 -5 -5 -5 -6 -6 -6 -4 -2 -2 -2 -3 -3 -5 -4 -3 -3 -1 2 3 4 4 5 6 6 6 7 8 8 8 8
-4 -4 -4 -5 -5 -5 -5 -5 -5 -5 -5 -5 -5 -5 -6 -5 -6 -5 -6 -6 -6 -6 -3 -4 -3 -3 -4 -5 -4 -4 -3 -2 0 3 4 4 4 5 6 6 7 7 7 7
-4 -4 -5 -5 -5 -5 -5 -6 -5 -5 -5 -6 -6 -6 -6 -5 -5 -5 -5 -6 -3 -5 -5 -5 -5 -4 -4 -4 -4 -4 -3 -2 -2 -1 1 3 4 4 5 6 6 6 7 7
-4 -5 -5 -5 -5 -5 -6 -6 -6 -6 -5 -5 -5 -5 -5 -4 -4 -5 -6 -6 -2 -4 -5 -5 -5 -5 -5 -4 -4 -5 -4 -3 -3 -2 -1 1 2 4 4 5 5 5 5 6
-5 -5 -5 -5 -5 -5 -6 -6 -6 -6 -6 -5 -5 -4 -5 -5 -5 -4 -4 -6 -4 -4 -5 -5 -5 -6 -5 -5 -6 -6 -5 -4 -3 -3 -2 -1 1 2 4 5 4 5 5 6
-5 -5 -5 -5 -5 -5 -5 -5 -6 -7 -7 -6 -5 -5 -6 -6 -6 -6 -5 -4 -5 -5 -6 -5 -6 -6 -5 -6 -5 -5 -6 -6 -5 -4 -3 -2 -1 0 3 5 5 6 6 6
-4 -4 -4 -5 -5 -5 -5 -6 -6 -7 -7 -7 -7 -6 -6 -6 -6 -5 -5 -5 -4 -5 -5 -5 -6 -6 -5 -6 -6 -5 -6 -5 -5 -5 -4 -2 -2 -1 0 1 4 5 6 6
-5 -5 -5 -5 -5 -6 -6 -6 -6 -6 -7 -7 -7 -7 -6 -6 -6 -5 -5 -5 -5 -5 -5 -5 -6 -5 -6 -5 -5 -5 -5 -5 -4 -4 -4 -3 -2 -1 -0 0 2 3 4 4
-6 -7 -6 -6 -6 -6 -6 -6 -6 -6 -6 -7 -7 -7 -7 -6 -6 -6 -5 -5 -5 -5 -5 -6 -6 -6 -6 -5 -5 -5 -5 -5 -5 -5 -5 -4 -3 -2 -1 -0 0 1 1 2
-7 -7 -7 -6 -6 -6 -6 -6 -7 -7 -7 -7 -7 -7 -7 -6 -6 -6 -5 -5 -5 -5 -5 -6 -6 -6 -6 -5 -5 -5 -5 -5 -5 -4 -4 -4 -3 -3 -2 -1 -1 -1 -1 -1

GFSNGP_850_temp_255.txt.gz
Temp
-1 1 2 2 2 3 2 3 2 6 6 6 5 3 3 4 4 6 7 7 6 6 7 8 11 12 13 14 16 17 17 17 18 19 19 20 20 20 20 19 20 19 18 17
-0 2 3 3 3 4 4 6 5 6 6 6 6 6 5 4 3 5 5 6 6 6 6 7 8 9 10 11 14 16 17 19 18 17 18 18 19 19 19 19 19 17 17 17
-1 1 2 1 4 5 5 6 5 4 4 4 6 7 6 4 4 5 4 5 5 5 5 6 8 8 9 10 11 13 16 17 18 17 18 17 18 18 19 18 17 16 16 15
-1 0 -0 5 6 5 5 6 4 3 3 4 5 7 6 5 5 5 5 4 4 5 5 5 7 8 8 8 10 11 12 14 16 17 17 15 16 16 16 16 15 15 15 15
-1 0 3 4 4 3 5 5 3 2 2 3 4 7 7 7 6 7 6 6 5 5 4 5 7 8 8 8 8 9 10 11 11 14 15 14 14 15 15 14 13 15 14 14
-1 -0 0 5 5 5 6 4 4 2 2 2 4 5 6 6 8 7 7 6 6 5 6 5 6 7 7 7 6 7 8 9 10 11 12 13 13 13 13 13 13 13 13 14
-1 -0 3 4 5 5 4 3 3 3 1 2 4 5 5 6 7 6 6 6 6 5 5 6 5 5 6 6 6 5 6 8 9 10 12 13 13 14 14 14 13 13 13 13
0 0 1 4 5 3 3 3 3 2 1 2 3 4 4 4 5 6 5 5 5 4 5 5 5 4 4 4 4 5 5 6 7 9 9 11 12 13 13 13 13 13 13 13
1 1 3 2 3 3 3 3 3 3 1 2 3 3 4 3 3 3 4 5 5 5 5 4 4 4 3 3 4 4 5 6 6 8 8 9 10 10 13 13 13 13 13 13
1 2 3 3 3 3 3 3 2 2 1 0 2 2 2 2 2 2 1 2 3 3 5 5 5 4 3 3 3 4 4 4 5 6 7 8 8 9 9 11 12 12 12 12
1 2 2 3 3 3 2 2 2 2 1 1 1 0 0 1 1 1 2 2 1 2 1 2 3 4 4 4 4 4 5 5 4 5 6 6 7 8 8 8 9 10 10 11
2 3 2 2 2 1 1 1 2 1 1 1 0 -1 -0 1 0 1 2 1 1 1 1 1 2 2 3 4 4 4 4 5 5 5 5 5 6 8 7 8 8 8 8 8
2 2 1 0 -0 -1 -0 -0 -0 -0 -0 -1 -1 -1 -1 -1 0 1 1 0 0 0 0 1 1 1 2 2 3 4 4 4 5 6 5 5 5 6 7 7 7 8 8 8
1 0 1 -1 -1 -1 -1 -2 -1 -1 -2 -2 -2 -2 -2 -3 -1 -0 -1 -1 -1 -1 -1 -0 0 1 0 1 1 3 4 4 4 5 6 5 5 6 6 6 7 7 7 7
1 -1 -2 -2 -2 -2 -3 -3 -3 -3 -4 -3 -3 -4 -4 -5 -5 -4 -2 -2 -2 -1 -1 -1 -1 0 0 0 -0 -0 1 3 4 4 6 6 6 5 6 6 7 7 8 7
-1 -1 -2 -3 -3 -4 -4 -4 -4 -4 -5 -5 -5 -5 -5 -5 -5 -5 -5 -4 -4 -2 -1 -2 -2 -2 -1 -1 0 0 -1 0 2 3 4 5 5 6 6 7 7 7 8 9
-2 -2 -3 -3 -4 -4 -4 -4 -5 -5 -5 -5 -5 -5 -5 -5 -5 -3 -2 -3 -4 -3 -2 -3 -3 -3 -3 -3 -3 -2 -1 -2 -2 1 3 3 4 5 6 6 7 7 7 7
-3 -4 -4 -4 -4 -4 -5 -5 -5 -5 -5 -5 -5 -5 -5 -5 -5 -5 -4 -3 -2 -2 -2 -3 -3 -3 -3 -3 -3 -3 -3 -4 -4 -3 -1 1 2 3 4 6 6 7 7 7
-4 -4 -4 -4 -5 -5 -5 -5 -5 -6 -6 -6 -5 -5 -6 -6 -6 -6 -5 -4 -3 -4 -2 -3 -3 -4 -3 -3 -3 -4 -4 -3 -4 -4 -3 -3 -1 1 2 4 5 6 7 7
-4 -4 -4 -5 -5 -5 -5 -6 -6 -6 -6 -6 -6 -6 -6 -6 -5 -5 -5 -4 -3 -4 -4 -3 -3 -3 -4 -4 -4 -4 -5 -6 -6 -5 -3 -3 -3 -2 -0 2 3 5 6 6
-4 -5 -5 -5 -5 -5 -5 -6 -6 -6 -7 -7 -7 -7 -7 -6 -5 -5 -5 -6 -3 -4 -4 -4 -4 -4 -5 -5 -5 -5 -5 -6 -6 -5 -4 -3 -3 -2 -2 -1 0 3 5 6
-4 -4 -5 -5 -5 -5 -5 -5 -5 -6 -6 -7 -7 -7 -6 -5 -5 -4 -4 -6 -4 -4 -5 -4 -4 -4 -6 -6 -6 -5 -5 -6 -6 -6 -5 -4 -3 -3 -3 -2 -1 0 3 5
-5 -4 -4 -5 -5 -5 -5 -5 -5 -6 -6 -7 -7 -7 -8 -7 -7 -7 -5 -3 -5 -5 -5 -4 -4 -5 -6 -6 -5 -6 -6 -6 -6 -7 -6 -5 -4 -3 -2 -2 -1 -1 0 3
-4 -4 -5 -5 -5 -5 -5 -5 -6 -6 -6 -7 -7 -7 -7 -7 -7 -6 -6 -5 -4 -4 -4 -4 -5 -5 -5 -5 -6 -6 -6 -6 -6 -7 -6 -6 -5 -4 -3 -2 -2 -1 -1 0
-5 -5 -6 -7 -7 -6 -6 -6 -6 -6 -6 -6 -6 -6 -7 -7 -7 -6 -5 -4 -4 -5 -5 -5 -5 -5 -6 -6 -6 -6 -6 -6 -6 -6 -6 -6 -5 -4 -3 -1 -2 -2 -1 1
-6 -7 -8 -8 -7 -7 -7 -7 -7 -7 -7 -6 -6 -7 -7 -7 -7 -6 -6 -5 -5 -5 -5 -5 -5 -5 -5 -6 -6 -6 -6 -6 -6 -6 -6 -6 -6 -5 -4 -3 -2 -1 -1 -0
-7 -8 -8 -7 -7 -7 -8 -8 -8 -7 -7 -7 -7 -7 -7 -7 -7 -6 -6 -5 -5 -6 -5 -5 -5 -5 -5 -6 -6 -6 -6 -6 -6 -6 -6 -6 -5 -5 -4 -4 -2 -1 -1 -1

GFSNGP_850_temp_258.txt.gz
Temp
2 3 3 4 3 4 4 4 3 7 8 8 7 7 7 5 3 3 4 5 8 9 9 9 9 9 9 10 11 14 17 17 17 17 19 21 21 20 18 17 17 16 16 16
1 3 4 4 5 6 6 7 7 8 8 5 3 6 5 4 3 3 3 3 3 7 8 9 8 8 8 10 11 13 14 15 15 16 15 17 18 19 19 18 16 15 15 15
1 3 3 2 5 7 8 8 8 5 3 4 3 5 4 4 3 4 3 1 2 3 6 7 7 7 6 8 10 11 11 13 14 14 15 14 16 16 17 17 15 15 15 15
1 1 1 5 8 8 7 8 5 5 5 5 3 6 4 4 3 3 3 2 2 2 3 3 4 7 6 6 8 9 10 11 11 12 13 14 14 15 15 15 15 15 15 15
1 2 4 6 5 5 6 6 4 4 5 4 3 6 6 5 5 4 4 4 3 2 2 2 3 4 7 6 6 7 9 9 10 11 11 12 14 14 14 14 14 14 14 14
2 1 2 3 7 7 8 6 4 5 4 2 2 6 6 5 5 5 5 5 4 4 3 2 2 3 4 6 6 5 6 6 8 9 11 12 12 13 13 14 14 14 14 14
2 2 4 6 6 6 6 4 5 5 4 1 2 3 3 3 4 5 5 5 6 5 4 4 3 3 3 4 5 5 6 6 6 7 9 11 12 12 13 13 14 13 13 14
1 2 3 5 5 4 5 5 5 4 4 1 1 2 4 4 4 4 4 4 4 5 4 3 3 3 2 3 4 5 5 6 6 5 6 8 10 12 13 13 13 13 13 14
3 4 6 5 5 5 5 4 5 4 4 1 1 1 4 4 4 4 3 3 3 4 4 4 3 2 3 2 3 4 4 5 4 5 5 6 8 9 11 13 13 13 13 14
3 5 6 5 4 4 5 4 4 4 3 2 2 3 3 3 3 3 2 2 2 2 2 2 1 1 1 1 1 3 4 4 4 4 5 5 6 7 8 9 10 12 13 14
4 5 5 5 5 4 4 3 3 3 2 2 2 3 2 2 2 1 1 1 0 0 0 0 0 -0 0 -0 1 1 3 3 3 4 4 4 5 5 6 7 8 9 9 11
4 6 4 4 4 3 2 2 2 1 1 1 1 1 1 1 0 -0 -1 -1 -1 -1 -1 -1 -1 -1 -1 -2 1 -0 -0 1 3 2 4 4 4 5 5 6 6 7 9 7
4 4 3 2 2 1 1 1 0 -0 0 -0 -0 -1 -1 -1 -1 -2 -1 -2 -2 -2 -3 -3 -2 -2 -2 -2 -3 -1 -0 -1 2 3 4 4 5 4 5 5 5 6 8 6
3 3 3 2 1 -0 -2 -1 -1 -1 -1 -1 -2 -2 -2 -2 -2 -2 -2 -3 -3 -4 -4 -4 -4 -3 -1 -0 0 -2 -0 0 -1 1 2 4 4 4 4 5 5 5 5 6
3 2 1 -1 -2 -2 -2 -1 -1 -0 -1 -2 -3 -3 -4 -4 -3 -3 -3 -3 -4 -4 -4 -2 -2 -2 -3 -1 -0 -1 -1 -0 -1 0 1 2 3 3 4 4 4 4 5 5
2 1 -1 -2 -1 -2 -2 -2 -2 -3 -4 -5 -4 -4 -5 -5 -4 -4 -3 -4 -4 -4 -2 -2 -1 -1 -2 -4 -5 -3 -3 -4 -3 -1 -0 1 2 3 4 4 4 5 4 4
1 1 -0 -1 -2 -3 -3 -4 -4 -4 -5 -5 -5 -5 -5 -5 -5 -4 -4 -3 -2 -2 -2 -3 -3 -3 -3 -4 -5 -5 -5 -3 -4 -4 -4 -2 -2 0 1 3 4 4 5 5
-1 -1 -2 -3 -3 -4 -4 -4 -5 -5 -5 -6 -6 -5 -5 -6 -5 -4 -3 -3 -2 -2 -1 -4 -4 -2 -2 -4 -5 -5 -5 -5 -5 -4 -4 -4 -3 -2 -1 -1 0 3 4 5
-2 -2 -3 -4 -4 -4 -5 -5 -5 -5 -6 -6 -6 -6 -6 -5 -5 -4 -4 -3 -3 -4 -2 -4 -4 -3 -2 -2 -3 -4 -4 -5 -6 -5 -5 -4 -3 -3 -3 -2 -0 -0 1 4
-2 -3 -3 -4 -4 -5 -5 -5 -5 -5 -6 -6 -6 -6 -7 -7 -6 -5 -4 -3 -3 -4 -5 -3 -3 -3 -3 -4 -5 -6 -5 -6 -6 -5 -5 -5 -5 -5 -3 -4 -3 -1 -0 1
-3 -3 -4 -4 -4 -5 -5 -5 -5 -5 -5 -6 -6 -6 -7 -7 -7 -7 -7 -6 -3 -5 -5 -3 -3 -3 -4 -4 -5 -6 -6 -6 -6 -6 -6 -6 -5 -5 -5 -4 -3 -2 -2 -1
-3 -4 -4 -4 -5 -5 -5 -5 -5 -5 -5 -5 -6 -6 -7 -7 -7 -7 -7 -7 -4 -5 -5 -4 -4 -4 -4 -3 -4 -5 -5 -6 -6 -6 -6 -6 -6 -5 -5 -4 -4 -3 -2 -1
-4 -4 -4 -4 -5 -5 -5 -5 -5 -5 -5 -6 -6 -6 -6 -7 -7 -7 -6 -6 -6 -5 -4 -3 -3 -4 -4 -5 -5 -5 -6 -6 -6 -6 -6 -6 -6 -6 -6 -5 -4 -4 -3 -2
-4 -4 -4 -5 -5 -6 -6 -6 -5 -5 -5 -6 -6 -6 -7 -6 -6 -7 -7 -6 -5 -5 -5 -5 -4 -4 -4 -4 -4 -6 -6 -6 -6 -6 -6 -6 -6 -6 -6 -6 -5 -4 -3 -3
-4 -5 -5 -7 -7 -7 -7 -7 -7 -7 -7 -7 -6 -6 -6 -6 -7 -7 -7 -6 -5 -5 -4 -4 -4 -4 -4 -4 -5 -6 -7 -6 -6 -6 -6 -6 -6 -6 -6 -6 -5 -5 -4 -3
-5 -6 -6 -7 -7 -8 -8 -8 -8 -8 -8 -8 -7 -7 -6 -6 -7 -7 -7 -6 -6 -5 -6 -5 -4 -4 -4 -5 -5 -6 -6 -6 -6 -6 -6 -6 -6 -6 -6 -6 -5 -5 -4 -3
-6 -6 -7 -8 -9 -9 -9 -9 -9 -9 -9 -9 -8 -7 -6 -6 -6 -7 -7 -6 -6 -6 -5 -5 -5 -5 -5 -5 -5 -5 -6 -6 -6 -6 -6 -6 -6 -6 -6 -5 -5 -5 -4 -3

GFSNGP_850_temp_261.txt.gz
Temp
3 4 5 5 5 6 4 4 3 7 8 10 8 9 6 5 4 3 2 1 2 3 5 8 10 10 9 10 11 13 15 18 18 17 17 16 16 16 17 17 17 17 17 17
3 4 5 5 6 7 7 7 8 9 9 9 9 7 5 5 5 3 3 2 1 2 2 3 4 7 5 6 8 10 12 13 16 18 17 16 16 16 16 16 16 17 18 17
2 5 4 3 6 7 7 8 9 7 7 9 7 7 3 4 6 4 3 2 2 2 2 2 3 4 4 4 5 8 10 11 13 15 16 17 16 16 16 16 16 16 16 16
2 3 2 7 9 9 7 7 4 6 8 7 5 5 2 5 5 4 3 3 3 2 2 2 2 3 3 4 4 5 7 9 10 12 13 14 16 16 16 15 16 16 16 16
3 4 5 7 7 5 6 5 6 6 8 6 4 5 4 4 4 4 4 5 4 3 3 2 2 2 3 4 4 4 4 5 7 9 10 13 14 14 15 15 15 16 16 16
4 3 3 2 6 8 9 7 7 6 7 6 3 3 3 2 2 3 5 5 5 5 4 3 2 2 2 3 3 4 4 4 5 6 8 10 11 13 13 14 15 15 16 16
4 3 6 8 8 8 6 3 6 6 6 5 3 2 1 2 4 5 5 5 5 5 5 4 3 2 3 2 2 3 3 4 5 5 5 7 9 11 12 13 14 15 15 15
3 3 4 7 8 6 7 7 6 6 6 5 3 2 1 3 5 5 5 4 4 4 5 4 3 2 2 1 2 2 3 3 4 5 5 5 7 8 10 12 13 14 14 14
4 5 7 6 7 7 7 7 6 6 6 6 5 4 2 4 5 5 5 4 4 3 3 3 3 2 2 1 -0 2 1 2 3 4 5 5 5 5 7 9 11 12 13 14
4 6 8 7 7 7 6 6 5 5 6 6 5 4 4 5 5 5 4 3 3 2 2 2 1 1 1 0 -1 -1 1 1 2 3 4 5 5 4 5 6 7 9 11 12
6 7 7 6 6 6 6 5 4 4 5 5 4 4 4 4 4 3 3 2 2 1 1 0 0 0 0 -0 -2 -2 -1 -0 -0 2 3 4 4 4 4 4 5 6 7 8
5 7 5 7 6 5 4 4 3 3 3 3 3 3 3 2 3 2 1 2 1 1 0 -1 -1 -1 -1 -2 -2 -2 -2 -2 -2 -1 2 2 3 4 4 4 4 4 5 6
6 6 6 5 5 4 3 3 2 2 2 2 2 2 1 1 1 0 1 1 0 -0 -1 -2 -2 -2 -2 -2 -2 -3 -2 -3 -2 -2 -2 1 2 3 4 5 4 4 4 5
6 5 5 5 4 2 2 1 1 2 2 2 1 1 0 -0 -0 -0 -0 -1 -1 -1 -2 -2 -3 -3 -3 -3 -1 -3 -3 -2 -3 -3 -3 -2 -0 2 2 3 4 4 4 5
6 5 5 2 2 1 1 1 2 2 1 -1 -2 -2 -2 -1 -1 -1 -1 -1 -1 -2 -3 -3 -2 -1 -3 -3 -3 -4 -3 -3 -3 -3 -3 -3 -3 -1 0 2 2 3 3 4
6 5 4 1 1 2 1 1 -0 -1 -2 -3 -3 -3 -4 -3 -3 -2 -1 -2 -3 -3 -4 -3 -3 -3 -4 -4 -4 -4 -3 -3 -4 -4 -4 -3 -3 -3 -2 -1 1 3 3 4
5 4 3 1 2 1 -0 -1 -2 -3 -4 -4 -4 -4 -5 -5 -5 -4 -4 -4 -4 -3 -3 -5 -4 -4 -4 -4 -4 -4 -4 -2 -3 -4 -4 -3 -4 -3 -3 -3 -2 -0 1 3
3 3 2 1 0 -1 -1 -2 -3 -3 -3 -4 -5 -5 -6 -6 -6 -6 -5 -4 -3 -2 -2 -4 -4 -4 -5 -4 -4 -4 -3 -4 -3 -2 -4 -5 -4 -4 -4 -4 -3 -2 -1 -0
1 1 -0 -1 -2 -2 -2 -3 -3 -3 -4 -4 -5 -5 -5 -5 -6 -6 -6 -5 -5 -5 -3 -4 -5 -5 -5 -5 -5 -5 -5 -5 -5 -5 -3 -3 -5 -4 -4 -4 -4 -3 -2 -2
1 0 -1 -1 -2 -3 -3 -3 -4 -4 -4 -4 -5 -5 -5 -6 -6 -7 -6 -5 -5 -5 -5 -4 -3 -3 -5 -5 -5 -5 -6 -5 -5 -5 -5 -5 -4 -5 -5 -5 -4 -4 -4 -3
-0 -0 -1 -2 -2 -3 -3 -4 -4 -5 -4 -4 -5 -5 -5 -6 -6 -6 -6 -6 -4 -6 -5 -3 -4 -4 -4 -4 -4 -4 -5 -6 -5 -5 -5 -5 -5 -5 -5 -5 -5 -5 -4 -4
-2 -2 -2 -3 -3 -3 -3 -4 -4 -4 -5 -5 -5 -5 -5 -6 -6 -6 -6 -6 -6 -6 -6 -5 -4 -4 -4 -4 -4 -4 -5 -6 -6 -6 -6 -6 -6 -6 -6 -6 -5 -5 -5 -5
-2 -2 -3 -3 -3 -3 -3 -4 -5 -5 -6 -6 -5 -5 -6 -6 -6 -6 -5 -5 -6 -6 -5 -5 -4 -4 -4 -4 -4 -4 -4 -5 -6 -6 -6 -6 -6 -6 -6 -6 -5 -5 -5 -5
-3 -3 -3 -3 -4 -4 -5 -6 -6 -6 -6 -6 -6 -7 -7 -6 -6 -6 -6 -6 -6 -6 -5 -5 -4 -4 -4 -4 -4 -4 -5 -5 -6 -6 -6 -6 -6 -6 -6 -6 -6 -6 -6 -5
-3 -3 -4 -4 -5 -5 -5 -6 -7 -7 -7 -7 -7 -7 -7 -7 -7 -7 -6 -6 -6 -6 -6 -5 -5 -5 -5 -5 -5 -5 -6 -6 -6 -6 -6 -6 -6 -6 -6 -6 -6 -6 -6 -5
-3 -5 -5 -5 -6 -7 -7 -7 -7 -7 -8 -8 -8 -8 -8 -8 -7 -7 -7 -7 -7 -6 -6 -6 -6 -6 -6 -5 -5 -5 -6 -6 -6 -6 -6 -6 -6 -6 -6 -6 -6 -6 -6 -6
-5 -5 -6 -6 -6 -6 -7 -7 -9 -9 -9 -9 -9 -9 -9 -8 -7 -7 -7 -7 -7 -7 -6 -6 -6 -6 -6 -6 -5 -6 -6 -6 -7 -7 -6 -6 -6 -6 -6 -6 -6 -6 -6 -6

GFSNGP_850_temp_264.txt.gz
Temp
3 4 5 5 5 6 4 4 3 5 6 8 10 7 7 5 3 5 4 2 2 1 1 2 2 4 4 6 7 9 11 13 14 15 17 18 16 16 16 16 16 16 16 17
3 5 5 5 6 6 6 7 7 8 8 10 8 8 6 4 4 4 3 3 2 1 1 1 2 2 3 4 5 7 8 10 12 13 14 15 16 16 16 17 16 16 16 16
2 5 5 3 6 7 7 8 8 7 7 5 8 7 5 2 3 3 3 4 2 2 1 1 1 2 2 3 4 4 6 7 8 11 12 13 14 15 16 16 16 16 16 16
2 3 2 7 9 8 3 4 3 4 6 7 7 6 2 2 2 3 4 4 5 4 2 2 2 2 2 2 2 3 4 5 6 8 10 12 12 13 15 16 16 16 16 16
3 4 6 6 7 5 4 5 6 5 7 7 6 6 1 2 3 3 5 5 5 5 4 4 2 2 2 2 2 2 2 3 4 5 6 8 11 12 13 14 15 16 16 16
3 2 3 5 4 6 9 6 4 6 7 6 4 3 4 2 3 4 5 5 5 5 5 4 3 1 1 1 1 2 2 2 2 3 4 5 7 10 12 13 14 15 16 16
4 3 6 7 8 8 6 2 4 6 7 7 5 4 2 2 3 5 6 5 5 4 4 3 3 2 1 -0 0 1 2 3 2 2 3 4 4 7 9 12 14 14 15 15
5 3 4 6 7 6 7 8 7 6 7 7 7 6 3 3 4 5 6 5 4 4 3 3 2 2 1 0 -1 -1 1 3 3 2 2 3 4 4 5 8 11 12 14 14
4 5 7 7 7 8 8 7 7 6 6 6 6 6 6 5 5 5 5 5 4 3 2 2 1 1 1 0 -0 -1 -0 2 4 3 2 3 3 3 4 4 6 9 11 12
5 7 7 7 8 7 6 6 6 5 5 5 5 5 5 5 5 5 5 4 3 3 2 1 1 0 -0 -0 -1 -1 -2 -0 1 1 3 3 3 3 3 3 4 5 7 9
6 7 7 7 6 3 6 6 5 4 4 4 4 4 4 4 4 4 3 3 3 2 1 1 -0 -1 -1 -1 -2 -2 -2 -2 -2 1 -0 2 3 2 2 3 3 3 4 5
4 6 7 6 5 6 6 5 4 4 3 3 3 3 2 3 3 3 2 2 2 1 1 -0 -1 -1 -2 -1 -2 -2 -2 -2 -2 -2 -1 -1 0 4 3 3 3 3 3 4
6 6 6 7 6 6 5 4 3 2 2 2 2 2 2 2 1 1 1 1 1 0 -0 -1 -2 -2 -1 -1 -2 -2 -3 -3 -2 -2 -2 -2 -2 -1 2 5 3 3 4 4
4 5 6 6 6 4 3 3 2 2 3 3 1 0 0 0 0 0 0 0 0 -0 -1 -2 -1 -1 -1 -2 -3 -3 -3 -3 -3 -3 -3 -3 -2 -2 -2 -2 2 4 4 4
5 6 6 5 4 4 3 3 3 3 2 0 -1 -1 -2 -2 -2 -2 -2 -1 -1 -2 -2 -2 -1 -1 -2 -4 -3 -4 -4 -3 -4 -3 -3 -3 -3 -3 -2 -2 -1 1 2 3
6 7 6 5 4 3 3 3 2 1 -0 -1 -2 -2 -3 -4 -4 -4 -3 -3 -3 -4 -2 -2 -1 -3 -4 -4 -4 -4 -4 -3 -3 -3 -3 -4 -4 -3 -3 -3 -3 -1 -0 1
6 6 6 4 3 2 2 1 -0 -1 -2 -2 -3 -4 -4 -5 -5 -5 -5 -6 -5 -5 -2 -2 -3 -4 -4 -4 -4 -4 -4 -3 -3 -4 -4 -5 -4 -4 -4 -4 -3 -2 -2 -1
6 5 4 3 2 1 1 -0 -1 -1 -1 -2 -3 -4 -4 -4 -4 -4 -6 -6 -6 -6 -5 -4 -4 -4 -5 -5 -5 -5 -5 -5 -4 -4 -5 -5 -5 -5 -5 -5 -4 -4 -3 -2
4 3 2 1 0 -1 -1 -1 -2 -2 -3 -3 -3 -4 -4 -4 -4 -4 -5 -6 -7 -6 -6 -5 -5 -5 -5 -5 -5 -6 -5 -6 -6 -5 -4 -5 -5 -5 -5 -5 -5 -5 -4 -4
2 2 1 0 -1 -1 -2 -2 -3 -3 -3 -4 -4 -4 -4 -4 -5 -5 -5 -6 -6 -6 -6 -6 -6 -5 -5 -5 -5 -6 -5 -6 -5 -5 -6 -5 -6 -5 -5 -5 -5 -5 -5 -5
1 1 0 -1 -2 -2 -2 -2 -3 -3 -3 -4 -4 -4 -5 -5 -5 -5 -6 -5 -5 -5 -6 -6 -6 -6 -6 -6 -7 -6 -5 -5 -5 -6 -5 -5 -6 -5 -6 -6 -6 -5 -5 -5
-0 -0 -1 -1 -1 -2 -2 -2 -2 -3 -3 -4 -5 -6 -6 -6 -6 -6 -5 -5 -5 -5 -6 -6 -6 -6 -6 -6 -6 -6 -6 -6 -5 -5 -6 -5 -6 -6 -6 -6 -6 -5 -6 -6
-1 -1 -1 -2 -2 -2 -2 -3 -3 -4 -5 -6 -6 -7 -7 -7 -7 -6 -6 -5 -6 -6 -6 -6 -6 -5 -5 -6 -6 -6 -5 -5 -5 -5 -6 -6 -6 -6 -6 -6 -6 -6 -6 -6
-1 -1 -2 -2 -2 -3 -3 -3 -4 -6 -7 -6 -7 -7 -7 -7 -7 -7 -7 -6 -6 -6 -6 -6 -6 -6 -6 -6 -6 -6 -6 -5 -6 -5 -6 -6 -6 -6 -6 -6 -6 -6 -6 -6
-1 -2 -2 -3 -3 -4 -4 -5 -5 -6 -6 -7 -7 -7 -8 -8 -8 -8 -8 -7 -7 -7 -7 -7 -7 -7 -7 -7 -6 -6 -6 -6 -6 -6 -6 -6 -7 -7 -7 -6 -6 -6 -6 -6
-3 -3 -4 -4 -5 -5 -6 -6 -6 -6 -7 -7 -8 -8 -9 -9 -9 -9 -8 -8 -8 -7 -8 -7 -7 -7 -7 -7 -7 -6 -7 -6 -6 -7 -7 -7 -7 -7 -7 -7 -7 -6 -6 -6
-3 -4 -5 -5 -6 -6 -6 -6 -7 -7 -8 -9 -9 -9 -9 -9 -9 -9 -9 -9 -8 -8 -8 -7 -7 -7 -7 -7 -7 -7 -7 -7 -7 -7 -7 -7 -7 -7 -7 -7 -7 -6 -6 -6

GFSNGP_850_temp_267.txt.gz
Temp
-2 2 3 3 2 3 1 1 -1 4 4 5 5 4 5 4 3 3 3 3 3 2 2 2 1 2 1 2 2 4 5 7 9 10 11 13 16 16 17 17 17 16 17 16
1 3 3 3 4 4 5 5 5 5 5 4 2 3 4 2 2 3 2 3 4 4 4 2 2 1 1 2 2 3 3 4 6 8 9 10 13 14 15 16 16 17 16 17
-1 2 2 -0 4 6 6 4 2 2 2 4 3 3 2 2 2 2 3 4 4 5 4 4 3 2 1 2 2 2 2 2 4 6 8 9 11 12 13 14 15 16 16 15
-1 1 -3 4 7 6 5 3 3 3 3 3 4 2 3 3 2 2 3 4 5 5 4 4 3 2 1 1 3 2 2 2 2 3 5 6 8 10 11 13 14 15 15 17
-1 -1 3 5 5 4 4 4 4 3 4 5 5 4 3 3 3 3 4 5 5 4 4 3 3 2 1 0 2 3 2 2 2 2 3 4 5 7 8 11 13 14 14 15
-2 -1 -3 2 4 6 6 2 3 4 4 5 4 1 1 4 4 4 5 5 5 4 3 3 2 2 1 -0 1 1 1 2 2 2 3 3 3 4 6 8 10 12 13 13
-4 -2 2 5 6 7 2 0 5 5 5 5 2 5 5 5 5 5 5 5 4 4 3 2 2 1 1 -0 -1 -0 1 1 3 3 3 3 3 3 4 5 7 11 10 11
-2 -3 -0 6 6 4 4 6 5 4 5 5 5 5 5 5 5 5 5 4 4 3 2 2 1 1 0 -0 -1 -0 -0 0 1 2 3 3 3 3 3 4 5 7 10 9
1 0 6 7 6 7 6 4 4 4 4 4 4 4 4 5 5 4 4 3 3 3 2 1 1 1 -0 -1 -0 0 -1 -1 -1 1 2 3 3 3 3 3 3 4 4 5
2 5 5 6 6 6 5 4 5 4 4 4 3 3 3 3 3 3 3 3 2 2 1 1 0 -0 -1 -1 -1 -0 0 -0 -1 -0 -1 2 2 2 2 2 3 3 3 3
2 3 4 5 6 6 6 5 4 4 3 3 3 2 2 2 2 2 2 2 1 1 0 0 -0 -1 -1 -1 -1 -1 -1 -1 -1 -2 -1 1 -1 1 2 2 2 3 3 3
0 3 3 4 5 6 6 4 4 3 3 2 2 2 2 2 1 1 1 1 0 0 -0 -0 -1 -1 -1 -1 -1 -2 -2 -2 -2 -2 -2 -1 -1 1 1 1 2 3 3 3
2 3 4 4 4 5 5 4 3 3 3 2 2 2 1 1 0 -0 -0 -1 -1 -1 -1 -1 -1 -1 -1 -2 -2 -3 -3 -3 -3 -3 -2 -2 -2 -2 1 3 2 2 2 3
2 3 3 4 4 5 5 4 3 3 2 1 1 0 -1 -1 -1 -1 -2 -2 -2 -2 -2 -1 -1 -1 -2 -2 -2 -4 -3 -4 -4 -4 -3 -2 -2 -3 -3 -3 0 3 2 2
3 4 4 5 4 4 3 3 3 2 2 1 -0 -1 -2 -2 -2 -3 -2 -3 -3 -2 -2 -1 -0 -1 -3 -4 -4 -4 -4 -4 -4 -3 -2 -4 -3 -2 -2 -3 -2 -1 1 2
4 5 5 5 5 3 3 3 2 1 1 -0 -1 -2 -2 -2 -3 -3 -3 -3 -2 -2 -2 -2 -2 -3 -5 -4 -5 -5 -5 -5 -5 -4 -4 -4 -5 -5 -4 -2 -3 -2 -2 -1
4 4 5 4 3 2 2 2 1 0 -1 -2 -2 -2 -2 -3 -3 -3 -3 -3 -3 -3 -3 -2 -4 -5 -5 -5 -5 -5 -5 -5 -5 -5 -5 -5 -5 -5 -5 -5 -4 -3 -2 -2
3 4 3 3 2 1 1 0 -0 -1 -1 -2 -2 -2 -3 -3 -3 -3 -3 -4 -4 -4 -4 -5 -6 -6 -6 -6 -6 -6 -6 -6 -6 -5 -5 -5 -5 -5 -5 -5 -5 -5 -5 -3
3 3 2 2 1 0 -0 -1 -1 -1 -1 -2 -2 -3 -3 -3 -4 -4 -4 -5 -5 -5 -5 -5 -6 -6 -6 -6 -6 -6 -6 -7 -6 -6 -6 -5 -5 -5 -5 -5 -5 -5 -6 -6
2 1 1 0 0 0 -1 -1 -1 -1 -1 -2 -2 -2 -3 -3 -4 -5 -5 -5 -5 -5 -5 -5 -6 -6 -6 -6 -7 -7 -7 -7 -6 -6 -6 -5 -5 -5 -6 -6 -6 -5 -6 -6
1 1 0 0 -1 -1 -1 -1 -1 -1 -2 -2 -2 -3 -6 -6 -6 -6 -7 -7 -6 -6 -5 -6 -6 -6 -7 -7 -7 -7 -6 -6 -6 -6 -5 -6 -5 -5 -6 -6 -6 -6 -6 -6
1 0 -0 -1 -1 -1 -2 -2 -2 -2 -2 -2 -3 -6 -7 -7 -7 -7 -7 -7 -7 -7 -6 -6 -6 -7 -7 -7 -7 -7 -7 -6 -6 -6 -6 -6 -6 -6 -6 -6 -6 -6 -6 -6
-1 -1 -1 -1 -1 -2 -2 -2 -3 -3 -4 -4 -4 -7 -7 -7 -7 -8 -8 -8 -7 -7 -7 -7 -7 -7 -7 -7 -7 -6 -7 -6 -7 -7 -7 -6 -6 -6 -6 -6 -6 -6 -6 -6
-1 -1 -1 -2 -2 -3 -3 -3 -4 -4 -6 -6 -6 -6 -7 -8 -8 -8 -8 -8 -9 -8 -8 -8 -8 -8 -8 -7 -7 -7 -7 -7 -7 -7 -7 -7 -7 -7 -7 -7 -7 -7 -7 -7
-2 -2 -2 -2 -3 -3 -4 -4 -5 -5 -6 -6 -6 -7 -7 -8 -9 -9 -9 -10 -9 -9 -9 -8 -8 -8 -8 -8 -8 -7 -7 -7 -7 -7 -7 -7 -7 -7 -7 -7 -8 -8 -8 -7
-2 -2 -2 -3 -3 -4 -4 -5 -6 -6 -6 -7 -6 -7 -7 -8 -9 -9 -10 -10 -9 -9 -9 -9 -9 -8 -8 -8 -8 -8 -7 -7 -7 -7 -7 -7 -8 -8 -8 -8 -8 -7 -7 -7
-3 -3 -3 -3 -3 -4 -4 -5 -6 -6 -7 -7 -7 -7 -8 -8 -9 -9 -10 -10 -10 -10 -10 -9 -9 -9 -9 -8 -8 -8 -8 -7 -7 -8 -8 -8 -7 -7 -7 -7 -7 -7 -6 -6